TimeCST,TemperatureF,Dew PointF,Humidity,Sea Level PressureIn,VisibilityMPH,Wind Direction,Wind SpeedMPH,Gust SpeedMPH,PrecipitationIn,Events,Conditions,WindDirDegrees,DateUTC
12:53 AM,59.0,53.1,81,29.68,9.0,SSE,15.0,29.9,N/A,,Clear,150,2013-03-09 06:53:00
1:53 AM,59.0,53.1,81,29.67,10.0,South,20.7,28.8,N/A,,Clear,170,2013-03-09 07:53:00
2:53 AM,57.9,52.0,81,29.67,10.0,South,15.0,-,N/A,,Clear,170,2013-03-09 08:53:00
3:53 AM,55.9,51.1,84,29.67,9.0,South,10.4,-,N/A,,Clear,170,2013-03-09 09:53:00
4:53 AM,53.1,50.0,89,29.66,9.0,SSE,6.9,-,N/A,,Clear,160,2013-03-09 10:53:00
5:53 AM,52.0,44.1,74,29.68,10.0,SW,10.4,-,N/A,,Clear,220,2013-03-09 11:53:00
6:53 AM,53.1,39.9,61,29.70,10.0,SSW,6.9,-,N/A,,Clear,210,2013-03-09 12:53:00
7:53 AM,52.0,37.9,59,29.76,10.0,NNW,11.5,21.9,N/A,,Clear,340,2013-03-09 13:53:00
8:53 AM,57.0,36.0,45,29.79,10.0,NW,11.5,-,N/A,,Clear,320,2013-03-09 14:53:00
9:53 AM,60.1,34.0,38,29.78,10.0,NW,13.8,20.7,N/A,,Clear,310,2013-03-09 15:53:00
10:53 AM,62.1,33.1,34,29.78,10.0,NNW,12.7,25.3,N/A,,Clear,330,2013-03-09 16:53:00
11:53 AM,64.9,32.0,29,29.76,10.0,NW,16.1,24.2,N/A,,Mostly Cloudy,310,2013-03-09 17:53:00
12:53 PM,66.9,30.9,26,29.73,10.0,NNW,15.0,-,N/A,,Clear,330,2013-03-09 18:53:00
1:53 PM,69.1,32.0,25,29.70,10.0,WNW,6.9,21.9,N/A,,Clear,290,2013-03-09 19:53:00
2:53 PM,68.0,30.0,24,29.67,10.0,NW,8.1,18.4,N/A,,Mostly Cloudy,320,2013-03-09 20:53:00
3:53 PM,71.1,28.0,20,29.65,10.0,NW,17.3,25.3,N/A,,Mostly Cloudy,320,2013-03-09 21:53:00
4:53 PM,69.1,27.0,21,29.64,10.0,NW,17.3,27.6,N/A,,Clear,320,2013-03-09 22:53:00
5:53 PM,68.0,26.1,21,29.64,10.0,NNW,18.4,-,N/A,,Clear,330,2013-03-09 23:53:00
6:53 PM,64.0,23.0,21,29.66,10.0,NNW,16.1,-,N/A,,Clear,330,2013-03-10 00:53:00
7:53 PM,62.1,19.0,19,29.70,10.0,NNW,15.0,-,N/A,,Mostly Cloudy,330,2013-03-10 01:53:00
8:53 PM,60.1,16.0,18,29.74,10.0,NW,18.4,27.6,N/A,,Overcast,320,2013-03-10 02:53:00
9:53 PM,57.0,16.0,20,29.79,10.0,NW,23.0,29.9,N/A,,Scattered Clouds,310,2013-03-10 03:53:00
10:53 PM,53.1,17.1,24,29.80,10.0,WNW,13.8,20.7,N/A,,Clear,300,2013-03-10 04:53:00
11:53 PM,52.0,15.1,23,29.83,10.0,West,17.3,-,N/A,,Clear,280,2013-03-10 05:53:00